This demonstration page uses our WeatherBlox Daily Observations layout. Learn more.

Left ArrowRight Arrow

Hourly Observations for January 2, 2022

Temp ( °F °C ) Dew Point ( °F °C ) Humidity (%) Winds ( mph kmh ) Pressure ( in mb ) Visibility ( mi km ) Precip ( " mm )
12:17 am 00:17 Mostly Cloudy 73 22.8 64 17.8 74 74 SSW 14 22 29.73 1007 10 16 0.00 0.00
12:53 am 00:53 Mostly Cloudy 73 22.8 64 17.8 74 74 SW 14 22 29.72 1006 10 16 0.00 0.00
1:53 am 01:53 Cloudy 73 22.8 64 17.8 74 74 SW 9 15 29.72 1007 10 16 0.00 0.00
2:22 am 02:22 Cloudy 73 22.8 64 17.8 74 74 SSW 10 17 29.72 1006 10 16 0.00 0.00
2:35 am 02:35 Cloudy 73 22.8 64 17.8 74 74 SW 12 19 29.72 1006 10 16 0.00 0.00
2:53 am 02:53 Cloudy 73 22.8 64 17.8 74 74 SSW 12 19 29.72 1006 10 16 0.00 0.00
3:24 am 03:24 Cloudy 73 22.8 64 17.8 74 74 SW 16 26 29.71 1006 10 16 0.00 0.00
3:53 am 03:53 Cloudy 73 22.8 64 17.8 74 74 SSW 12 19 29.72 1006 10 16 0.00 0.00
4:53 am 04:53 Cloudy with Light Rain 73 22.8 64 17.8 74 74 SW 10 17 29.73 1007 10 16 0.00 0.00
5:05 am 05:05 Cloudy 73 22.8 64 17.8 74 74 W 8 13 29.74 1007 10 16 0.00 0.00
5:21 am 05:21 Cloudy with Heavy Rain 65 18.3 62 16.7 90 90 WNW 15 24 29.78 1009 2 3 0.01 0.25
5:32 am 05:32 Cloudy with Heavy Rain 64 17.8 62 16.7 93 93 WSW 10 17 29.79 1009 1 2 0.01 0.25
5:39 am 05:39 Cloudy with Rain 64 17.8 62 16.7 93 93 WSW 7 11 29.79 1009 3 5 0.01 0.25
5:53 am 05:53 Cloudy with Rain 64 17.8 62 16.7 93 93 SW 5 7 29.78 1009 5 8 0.01 0.25
6:53 am 06:53 Cloudy with Heavy Rain 63 17.2 62 16.7 97 97 S 5 7 29.81 1009 4 6 0.00 0.00
7:53 am 07:53 Cloudy with Light Rain 63 17.2 62 16.7 97 97 Calm 29.78 1009 10 16 0.02 0.51
8:42 am 08:42 Cloudy with Light Rain 63 17.2 61 16.1 93 93 SW 5 7 29.86 1011 7 11 0.01 0.25
8:53 am 08:53 Cloudy with Light Rain 63 17.2 62 16.7 97 97 SSW 3 6 29.85 1011 5 8 0.02 0.51
9:01 am 09:01 Cloudy with Rain 63 17.2 62 16.7 97 97 S 5 7 29.86 1011 4 6 0.00 0.00
9:14 am 09:14 Cloudy with Light Rain 63 17.2 62 16.7 97 97 S 5 7 29.86 1011 5 8 0.00 0.00
9:53 am 09:53 Cloudy with Light Rain 63 17.2 61 16.1 93 93 SSW 3 6 29.86 1011 10 16 0.00 0.00
10:53 am 10:53 Cloudy 63 17.2 60 15.6 90 90 SW 5 7 29.89 1012 10 16 0.02 0.51
11:53 am 11:53 Cloudy with Light Rain 63 17.2 59 15 87 87 SW 5 7 29.89 1012 10 16 0.02 0.51
12:03 pm 12:03 Cloudy with Light Rain 63 17.2 60 15.6 90 90 S 7 11 29.89 1012 10 16 0.00 0.00
12:34 pm 12:34 Cloudy with Light Rain 62 16.7 60 15.6 93 93 SSW 5 7 29.87 1011 10 16 0.01 0.25
12:53 pm 12:53 Cloudy 62 16.7 58 14.4 86 86 S 8 13 29.87 1012 10 16 0.02 0.51
1:16 pm 13:16 Cloudy with Light Rain 61 16.1 58 14.4 90 90 SSW 8 13 29.87 1012 10 16 0.00 0.00
1:29 pm 13:29 Cloudy with Light Rain 61 16.1 57 13.9 87 87 SSW 6 9 29.86 1011 10 16 0.01 0.25
1:36 pm 13:36 Cloudy with Light Rain 61 16.1 58 14.4 90 90 SSE 3 6 29.85 1011 10 16 0.01 0.25
1:43 pm 13:43 Cloudy with Light Rain 61 16.1 58 14.4 90 90 VRB 5 7 29.83 1010 10 16 0.01 0.25
1:53 pm 13:53 Cloudy with Light Rain 60 15.6 57 13.9 90 90 SE 6 9 29.81 1010 10 16 0.02 0.51
2:31 pm 14:31 Cloudy with Light Rain 60 15.6 58 14.4 93 93 WSW 3 6 29.84 1011 10 16 0.01 0.25
2:45 pm 14:45 Cloudy 60 15.6 58 14.4 93 93 SW 6 9 29.86 1011 10 16 0.01 0.25
2:53 pm 14:53 Cloudy 59 15 58 14.4 96 96 W 3 6 29.83 1010 10 16 0.01 0.25
3:51 pm 15:51 Cloudy 61 16 55 13 83 83 N 3 6 29.82 1010 10 16 0.02 0.51
3:53 pm 15:53 Cloudy 60 15.6 56 13.3 86 86 NW 3 6 29.82 1010 10 16 0.02 0.51
4:53 pm 16:53 Mostly Cloudy 60 15.6 57 13.9 90 90 Calm 29.81 1010 10 16 0.00 0.00
5:53 pm 17:53 Cloudy 60 15.6 57 13.9 90 90 Calm 29.81 1010 10 16 0.00 0.00
6:53 pm 18:53 Mostly Cloudy 59 15 57 13.9 93 93 Calm 29.79 1009 10 16 0.00 0.00
7:53 pm 19:53 Mostly Cloudy 58 14.4 57 13.9 97 97 SE 7 11 29.77 1008 10 16 0.00 0.00
8:09 pm 20:09 Mostly Cloudy 58 14.4 57 13.9 97 97 SE 8 13 29.78 1008 10 16 0.00 0.00
8:53 pm 20:53 Cloudy 57 13.9 55 12.8 93 93 SSE 6 9 29.74 1007 10 16 0.00 0.00
8:58 pm 20:58 Cloudy 57 13.9 55 12.8 93 93 S 5 7 29.76 1008 10 16 0.00 0.00
9:17 pm 21:17 Cloudy 57 13.9 54 12.2 90 90 VRB 5 7 29.74 1007 10 16 0.00 0.00
9:53 pm 21:53 Cloudy 57 13.9 55 12.8 93 93 VRB 3 6 29.70 1006 10 16 0.00 0.00
10:00 pm 22:00 Cloudy 57 13.9 55 12.8 93 93 Calm 29.71 1006 10 16 0.00 0.00
10:53 pm 22:53 Cloudy with Rain 54 12.2 52 11.1 93 93 NW 16 26 29.70 1006 3 5 0.01 0.25
11:26 pm 23:26 Cloudy with Light Rain 52 11.1 49 9.4 89 89 NW 15 24 29.72 1006 9 14 0.01 0.25
11:35 pm 23:35 Cloudy with Light Rain 51 10.6 49 9.4 92 92 NW 13 20 29.71 1006 5 8 0.01 0.25
11:42 pm 23:42 Cloudy with Light Rain 51 10.6 49 9.4 92 92 NW 15 24 29.71 1006 10 16 0.01 0.25
11:53 pm 23:53 Cloudy with Light Rain 50 10 48 8.9 93 93 NW 15 24 29.69 1006 7 11 0.01 0.25

Powered by AerisWeather